Newton, NJ

8:53 PM EST on February 24, 2017 (GMT -0500)
Andover

Weather History for K12N - March, 2014

Change the Weather History Date:

Saturday, March 8, 2014

  Actual Average (KFWN) Record (KFWN)
Temperature  
Mean Temperature 36 °F -  
Max Temperature 52 °F 43 °F 71 °F (2016)
Min Temperature 21 °F 20 °F 2 °F (1990)
Degree Days  
Heating Degree Days 28    
Moisture  
Dew Point 26 °F    
Average Humidity 65    
Maximum Humidity 96    
Minimum Humidity 38    
Precipitation  
Precipitation 0.00 in - - ()
Sea Level Pressure  
Sea Level Pressure 29.89 in    
Wind  
Wind Speed 3 mph (North)    
Max Wind Speed 7 mph    
Max Gust Speed 22 mph    
Averages and records for this station are not official NWS values.
T = Trace of Precipitation, MM = Missing Value Source: NWS Daily Summary

Daily Weather History Graph

Daily Weather History Graph

Search for Another Location

Airport or City:

Trip Planner

Search our weather history database for the weather conditions in past years. The results will help you decide how hot, cold, wet, or windy it might be!

Date:

Astronomy

Mar. 08, 2014 Rise Set
Actual Time 6:22 AM EST 5:57 PM EST
Civil Twilight 5:54 AM EST 6:25 PM EST
Nautical Twilight 5:22 AM EST 6:57 PM EST
Astronomical Twilight 4:50 AM EST 7:29 PM EST
Moon 10:58 AM EST (3/8) 12:56 AM EST (3/8)
Length of Visible Light 12h 30m
Length of Day
11h 35m
First Quarter, 51% of the Moon is Illuminated
Mar 8
First Quarter
Mar 16
Full
Mar 23
Last Quarter
Mar 30
New
Apr 7
First Quarter

Hourly Weather History & Observations

Time (EST) Temp. Windchill Dew Point Humidity Pressure Visibility Wind Dir Wind Speed Gust Speed Precip Events Conditions
12:54 AM 32.0 °F - 24.1 °F 73% 29.94 in - Calm Calm - N/A   Unknown
1:54 AM 32.0 °F 26.4 °F 26.1 °F 79% 29.92 in - NE 5.8 mph - N/A   Unknown
2:54 AM 30.9 °F 27.5 °F 28.0 °F 89% 29.90 in - North 3.5 mph - N/A   Unknown
3:54 AM 28.0 °F - 25.0 °F 88% 29.90 in - Calm Calm - N/A   Unknown
4:54 AM 26.1 °F - 24.1 °F 92% 29.90 in - Calm Calm - N/A   Unknown
5:54 AM 23.0 °F - 21.9 °F 96% 29.90 in - Calm Calm - N/A   Unknown
6:54 AM 21.9 °F - 19.9 °F 92% 29.91 in - Calm Calm - N/A   Unknown
7:54 AM 28.9 °F - 28.0 °F 96% 29.91 in - Calm Calm - N/A   Unknown
8:54 AM 34.0 °F 31.0 °F 26.1 °F 73% 29.91 in - Variable 3.5 mph - N/A   Unknown
9:54 AM 39.0 °F 36.8 °F 26.1 °F 60% 29.89 in - South 3.5 mph - N/A   Unknown
10:54 AM 42.1 °F 40.2 °F 27.0 °F 55% 29.88 in - Variable 3.5 mph - N/A   Unknown
11:54 AM 46.9 °F - 27.0 °F 46% 29.86 in - SSW 6.9 mph - N/A   Unknown
12:54 PM 48.9 °F - 26.1 °F 41% 29.83 in - SSW 6.9 mph - N/A   Unknown
1:54 PM 52.0 °F - 27.0 °F 38% 29.81 in - Variable 6.9 mph - N/A   Unknown
2:54 PM 51.1 °F - 27.0 °F 39% 29.82 in - Variable 5.8 mph 21.9 mph N/A   Unknown
3:54 PM 50.0 °F - 26.1 °F 39% 29.83 in - North 5.8 mph - N/A   Unknown
4:54 PM 48.0 °F - 28.0 °F 46% 29.85 in - North 6.9 mph - N/A   Unknown
5:54 PM 46.0 °F 44.8 °F 28.0 °F 50% 29.87 in - North 3.5 mph - N/A   Unknown
6:54 PM 43.0 °F - 28.9 °F 58% 29.90 in - Calm Calm - N/A   Unknown
7:54 PM 39.0 °F - 30.0 °F 70% 29.91 in - Calm Calm - N/A   Unknown
8:54 PM 42.1 °F 40.2 °F 28.0 °F 58% 29.93 in - North 3.5 mph - N/A   Unknown
9:54 PM 41.0 °F 36.4 °F 27.0 °F 57% 29.93 in - North 6.9 mph - N/A   Unknown
10:54 PM 39.0 °F 35.7 °F 28.0 °F 65% 29.93 in - North 4.6 mph - N/A   Unknown
11:54 PM 37.9 °F 33.5 °F 28.0 °F 68% 29.91 in - North 5.8 mph - N/A   Unknown